Tracking 29892 objects as of 21-Nov-2024
HD Live streaming from Space Station
objects crossing your sky now

COSMOS 839 DEB

Track COSMOS 839 DEB now!
10-day predictions


NORAD ID: 10416
Int'l Code: 1976-067K
Perigee: 1,073.2 km
Apogee: 2,122.7 km
Inclination: 65.7 °
Period: 118.0 minutes
Semi major axis: 7968 km
RCS: 0.1276 m2 (medium)
Launch date: July 8, 1976
Source: Commonwealth of Independent States (former USSR) (CIS)
Launch site: PLESETSK MISSILE AND SPACE COMPLEX (PKMTR)

Note: This is SATELLITE DEBRIS
Your satellite tracking list
Your tracking list is empty




NASA's NSSDC Master Catalog

Two Line Element Set (TLE):
1 10416U 76067K   24325.02016521 -.00000010  00000-0  21508-3 0  9992
2 10416  65.7164 222.4959 0658470 307.6066 154.2908 12.20391828156078
Source of the keplerian elements: AFSPC